EW2812 Weather Reports


time (UTC)temp
C
wind
direction
speed
KPH
gust
KPH
rain 1hr
cm
rain 24hr
cm
rain mn
cm
humidity
%
barometer
mb
20260508004526 -17 116 0.0 0.0 0.00 0.03 0.03 1015.9
20260508003023 -17 116 0.0 0.0 0.00 0.03 0.03 1015.9
20260508001519 -17 116 0.0 0.0 0.00 0.03 0.03 1015.9
20260508000015 -17 116 0.0 0.0 0.00 0.03 0.03 1016.0
20260507234518 -17 116 0.0 0.0 0.00 0.03 0.03 1016.2
20260507233004 -17 118 0.0 0.0 0.00 0.03 0.03 1016.2
20260507231606 -17 45 0.0 0.0 0.00 0.03 0.03 1016.3
20260507231502 -17 45 0.0 0.0 0.00 0.03 0.03 1016.3
20260507230100 -17 0.0 0.0 0.00 0.03 0.03 1016.4
20260507224552 -17 0.0 0.0 0.00 0.03 0.03 1016.4
20260507223056 -17 0.0 0.0 0.00 0.03 0.03 1016.5
20260507221549 -17 0.0 0.0 0.03 0.03 0.03 1016.4
20260507220041 -17 0.0 0.0 0.03 0.03 0.03 1016.6
20260507214537 -17 45 0.0 0.0 0.03 0.03 0.03 1016.6
20260507213030 -17 45 0.0 0.0 0.03 0.13 0.03 1016.6
20260507211524 -17 45 0.0 0.0 0.03 0.13 0.03 1016.7
20260507210020 -17 45 0.0 0.0 0.00 0.10 0.00 1016.5
20260507204514 -17 45 0.0 0.0 0.00 0.10 0.00 1016.5
20260507203008 -17 45 0.0 0.0 0.00 0.15 0.00 1016.3
20260507201505 -17 45 0.0 0.0 0.00 0.15 0.00 1016.2
20260507200000 -17 45 0.0 0.0 0.00 0.15 0.00 1016.1
20260507194557 -17 45 0.0 0.0 0.00 0.15 0.00 1016.0
20260507193102 -17 45 0.0 0.0 0.00 0.15 0.00 1015.9
20260507191557 -17 45 0.0 0.0 0.00 0.15 0.00 1015.8
20260507190051 -17 45 0.0 0.0 0.00 0.15 0.00 1015.7
20260507184546 -17 45 0.0 0.0 0.00 0.15 0.00 1015.7
20260507183045 -17 45 0.0 0.0 0.00 0.18 0.00 1015.6
20260507181538 -17 45 0.0 0.0 0.00 0.18 0.00 1015.6
20260507180040 -17 63 0.0 0.0 0.00 0.18 0.00 1015.7
20260507174534 -17 63 0.0 0.0 0.00 0.18 0.00 1015.6
20260507173020 -17 61 0.0 0.0 0.00 0.33 0.00 1015.5
20260507171516 -17 71 0.0 0.0 0.00 0.33 0.00 1015.6
20260507170013 -17 144 0.0 0.0 0.00 0.33 0.00 1015.5
20260507164507 -17 87 0.0 0.0 0.00 0.33 0.00 1015.7
20260507163012 -17 69 0.0 0.0 0.00 0.33 0.00 1015.7
20260507161506 -17 88 0.0 0.0 0.00 0.33 0.00 1015.8
20260507160003 -17 70 0.0 0.0 0.00 0.33 0.00 1015.8
20260507154559 -17 80 0.0 0.0 0.00 0.33 0.00 1015.8
20260507153053 -17 85 0.0 0.0 0.00 0.36 0.00 1015.8
20260507151548 -17 126 0.0 0.0 0.00 0.36 0.00 1015.9
20260507150044 -17 92 0.0 0.0 0.00 0.36 0.00 1015.8
20260507144540 -17 71 0.0 0.0 0.00 0.36 0.00 1015.8
20260507143044 -17 76 0.0 0.0 0.00 0.36 0.00 1015.9
20260507141535 -17 71 0.0 0.0 0.00 0.36 0.00 1016.0
20260507140031 -17 63 0.0 0.0 0.00 0.36 0.00 1016.1
20260507134536 -17 73 0.0 0.0 0.00 0.36 0.00 1016.1
20260507133022 -17 56 0.0 0.0 0.00 0.36 0.00 1016.1
20260507131524 -17 67 0.0 0.0 0.00 0.36 0.00 1016.1
20260507130013 -17 76 0.0 0.0 0.00 0.36 0.00 1016.0
20260507124508 -17 76 0.0 0.0 0.00 0.36 0.00 1016.0
20260507123108 -17 65 0.0 0.0 0.00 0.36 0.00 1016.0
20260507121601 -17 73 0.0 0.0 0.00 0.36 0.00 1015.9
20260507120051 -17 339 0.0 0.0 0.00 0.36 0.00 1016.0
20260507114547 -17 67 0.0 0.0 0.00 0.36 0.00 1016.0
20260507113048 -17 55 0.0 0.0 0.00 0.36 0.00 1016.0
20260507111544 -17 79 0.0 0.0 0.00 0.36 0.00 1016.0
20260507110050 -17 50 0.0 0.0 0.00 0.36 0.00 1016.2
20260507104535 -17 128 0.0 0.0 0.00 0.36 0.00 1016.1
20260507103032 -17 130 0.0 0.0 0.00 0.36 0.00 1016.2
20260507101533 -17 91 0.0 0.0 0.00 0.36 0.00 1016.3
20260507100028 -17 42 0.0 0.0 0.00 0.36 0.00 1016.3
20260507094522 -17 51 0.0 0.0 0.00 0.36 0.00 1016.2
20260507093016 -17 129 0.0 0.0 0.00 0.36 0.00 1016.2
20260507091512 -17 169 0.0 0.0 0.00 0.36 0.00 1016.2
20260507090007 -17 166 0.0 0.0 0.00 0.36 0.00 1016.1
20260507084503 -17 77 0.0 0.0 0.00 0.36 0.00 1016.2
20260507083101 -17 70 0.0 0.0 0.00 0.36 0.36 1016.1
20260507081556 -17 70 0.0 0.0 0.00 0.36 0.36 1016.0
20260507080052 -17 69 0.0 0.0 0.00 0.36 0.36 1016.0
20260507074548 -17 0.0 0.0 0.00 0.36 0.36 1015.9
20260507073045 -17 69 0.0 0.0 0.00 0.36 0.36 1015.8
20260507071540 -17 69 0.0 0.0 0.00 0.36 0.36 1015.8
20260507070046 -17 69 0.0 0.0 0.00 0.36 0.36 1015.7
20260507064536 -17 69 0.0 0.0 0.00 0.36 0.36 1015.7
20260507063034 -17 69 0.0 0.0 0.00 0.36 0.36 1015.6
20260507061527 -17 69 0.0 0.0 0.00 0.36 0.36 1015.6
20260507060022 -17 69 0.0 0.0 0.00 0.36 0.36 1015.4
20260507054518 -17 69 0.0 0.0 0.00 0.36 0.36 1015.3
20260507053008 -17 69 0.0 0.0 0.00 0.36 0.36 1015.2
20260507051504 -17 69 0.0 0.0 0.00 0.36 0.36 1015.2
20260507050103 -17 69 0.0 0.0 0.00 0.36 0.36 1015.1
20260507044557 -17 69 0.0 0.0 0.00 0.36 0.36 1015.0
20260507043001 -17 69 0.0 0.0 0.00 0.36 0.36 1014.9
20260507041601 -17 69 0.0 0.0 0.00 0.36 0.36 1014.9
20260507040053 -17 68 0.0 0.0 0.00 0.36 0.36 1014.8
20260507034558 -17 69 0.0 0.0 0.00 0.36 0.36 1014.8
20260507033048 -17 69 0.0 0.0 0.00 0.36 0.36 1014.7
20260507031543 -17 69 0.0 0.0 0.00 0.36 0.36 1014.8
20260507030040 -17 69 0.0 0.0 0.00 0.36 0.36 1014.8
20260507024549 -17 69 0.0 0.0 0.00 0.36 0.36 1014.6
20260507023000 -17 69 0.0 0.0 0.00 0.36 0.36 1014.6
20260507021559 -17 69 0.0 0.0 0.00 0.36 0.36 1014.5
20260507020051 -17 69 0.0 0.0 0.00 0.36 0.36 1014.5
20260507014543 -17 69 0.0 0.0 0.00 0.36 0.36 1014.5
20260507013035 -17 68 0.0 0.0 0.00 0.36 0.36 1014.4
20260507011539 -17 69 0.0 0.0 0.00 0.36 0.36 1014.5
20260507010026 -17 69 0.0 0.0 0.00 0.36 0.36 1014.5